Year,Month,Day,Hour,Minute,Value (Times are PST for windspeed in km/hr)
2013,09,30,00,00,11.70
2013,09,30,00,01,9.20
2013,09,30,00,02,2.30
2013,09,30,00,03,12.40
2013,09,30,00,04,7.70
2013,09,30,00,05,9.50
2013,09,30,00,06,5.00
2013,09,30,00,07,6.10
2013,09,30,00,08,7.00
2013,09,30,00,09,7.40
2013,09,30,00,10,4.80
2013,09,30,00,11,4.80
2013,09,30,00,12,7.10
2013,09,30,00,13,12.90
2013,09,30,00,14,9.00
2013,09,30,00,15,6.30
2013,09,30,00,16,3.80
2013,09,30,00,17,3.80
2013,09,30,00,18,6.80
2013,09,30,00,19,12.90
2013,09,30,00,20,9.40
2013,09,30,00,21,5.40
2013,09,30,00,22,7.70
2013,09,30,00,23,7.60
2013,09,30,00,24,9.70
2013,09,30,00,25,4.60
2013,09,30,00,26,9.70
2013,09,30,00,27,9.80
2013,09,30,00,28,10.00
2013,09,30,00,29,11.20
2013,09,30,00,30,9.00
2013,09,30,00,31,13.80
2013,09,30,00,32,10.00
2013,09,30,00,33,14.40
2013,09,30,00,34,10.30
2013,09,30,00,35,8.80
2013,09,30,00,36,11.60
2013,09,30,00,37,9.40
2013,09,30,00,38,9.60
2013,09,30,00,39,10.90
2013,09,30,00,40,11.90
2013,09,30,00,41,9.70
2013,09,30,00,42,12.20
2013,09,30,00,43,5.50
2013,09,30,00,44,8.20
2013,09,30,00,45,12.90
2013,09,30,00,46,6.50
2013,09,30,00,47,8.70
2013,09,30,00,48,8.60
2013,09,30,00,49,11.60
2013,09,30,00,50,8.70
2013,09,30,00,51,12.20
2013,09,30,00,52,11.30
2013,09,30,00,53,10.50
2013,09,30,00,54,6.60
2013,09,30,00,55,9.10
2013,09,30,00,56,10.50
2013,09,30,00,57,11.10
2013,09,30,00,58,6.90
2013,09,30,00,59,11.40
2013,09,30,01,00,8.40
2013,09,30,01,01,6.60
2013,09,30,01,02,12.50
2013,09,30,01,03,9.00
2013,09,30,01,04,12.90
2013,09,30,01,05,13.10
2013,09,30,01,06,6.20
2013,09,30,01,07,14.80
2013,09,30,01,08,13.30
2013,09,30,01,09,12.20
2013,09,30,01,10,9.90
2013,09,30,01,11,10.90
2013,09,30,01,12,5.70
2013,09,30,01,13,6.70
2013,09,30,01,14,8.70
2013,09,30,01,15,11.10
2013,09,30,01,16,13.50
2013,09,30,01,17,10.00
2013,09,30,01,18,11.10
2013,09,30,01,19,14.60
2013,09,30,01,20,11.10
2013,09,30,01,21,13.90
2013,09,30,01,22,12.60
2013,09,30,01,23,6.80
2013,09,30,01,24,12.20
2013,09,30,01,25,7.60
2013,09,30,01,26,9.00
2013,09,30,01,27,8.20
2013,09,30,01,28,12.40
2013,09,30,01,29,6.20
2013,09,30,01,30,9.70
2013,09,30,01,31,11.40
2013,09,30,01,32,4.50
2013,09,30,01,33,4.00
2013,09,30,01,34,7.20
2013,09,30,01,35,1.60
2013,09,30,01,36,4.90
2013,09,30,01,37,4.30
2013,09,30,01,38,8.20
2013,09,30,01,39,7.20
2013,09,30,01,40,4.70
2013,09,30,01,41,5.20
2013,09,30,01,42,6.00
2013,09,30,01,43,13.30
2013,09,30,01,44,7.80
2013,09,30,01,45,7.50
2013,09,30,01,46,5.30
2013,09,30,01,47,8.90
2013,09,30,01,48,6.40
2013,09,30,01,49,8.60
2013,09,30,01,50,11.30
2013,09,30,01,51,4.60
2013,09,30,01,52,4.70
2013,09,30,01,53,7.40
2013,09,30,01,54,6.90
2013,09,30,01,55,8.00
2013,09,30,01,56,4.40
2013,09,30,01,57,8.10
2013,09,30,01,58,4.30
2013,09,30,01,59,6.80
2013,09,30,02,00,5.60
2013,09,30,02,01,4.80
2013,09,30,02,02,3.90
2013,09,30,02,03,3.60
2013,09,30,02,04,4.70
2013,09,30,02,05,6.80
2013,09,30,02,06,5.70
2013,09,30,02,07,2.70
2013,09,30,02,08,3.10
2013,09,30,02,09,3.70
2013,09,30,02,10,5.80
2013,09,30,02,11,4.90
2013,09,30,02,12,8.30
2013,09,30,02,13,9.80
2013,09,30,02,14,6.40
2013,09,30,02,15,7.20
2013,09,30,02,16,7.30
2013,09,30,02,17,9.50
2013,09,30,02,18,10.10
2013,09,30,02,19,10.50
2013,09,30,02,20,13.30
2013,09,30,02,21,10.40
2013,09,30,02,22,3.40
2013,09,30,02,23,7.50
2013,09,30,02,24,8.00
2013,09,30,02,25,5.40
2013,09,30,02,26,6.00
2013,09,30,02,27,9.70
2013,09,30,02,28,6.40
2013,09,30,02,29,5.30
2013,09,30,02,30,4.60
2013,09,30,02,31,2.60
2013,09,30,02,32,5.50
2013,09,30,02,33,4.40
2013,09,30,02,34,3.20
2013,09,30,02,35,4.70
2013,09,30,02,36,3.70
2013,09,30,02,37,4.60
2013,09,30,02,38,4.30
2013,09,30,02,39,5.80
2013,09,30,02,40,5.20
2013,09,30,02,41,3.50
2013,09,30,02,42,3.80
2013,09,30,02,43,4.90
2013,09,30,02,44,10.00
2013,09,30,02,45,14.50
2013,09,30,02,46,8.70
2013,09,30,02,47,6.70
2013,09,30,02,48,7.70
2013,09,30,02,49,8.40
2013,09,30,02,50,7.90
2013,09,30,02,51,7.80
2013,09,30,02,52,4.80
2013,09,30,02,53,9.20
2013,09,30,02,54,3.80
2013,09,30,02,55,4.50
2013,09,30,02,56,6.40
2013,09,30,02,57,5.70
2013,09,30,02,58,3.80
2013,09,30,02,59,5.10
2013,09,30,03,00,7.50
2013,09,30,03,01,6.10
2013,09,30,03,02,8.90
2013,09,30,03,03,16.20
2013,09,30,03,04,8.10
2013,09,30,03,05,5.80
2013,09,30,03,06,21.30
2013,09,30,03,07,13.70
2013,09,30,03,08,7.30
2013,09,30,03,09,12.60
2013,09,30,03,10,11.30
2013,09,30,03,11,13.90
2013,09,30,03,12,11.00
2013,09,30,03,13,8.40
2013,09,30,03,14,14.20
2013,09,30,03,15,8.90
2013,09,30,03,16,13.80
2013,09,30,03,17,12.90
2013,09,30,03,18,4.50
2013,09,30,03,19,4.70
2013,09,30,03,20,10.60
2013,09,30,03,21,9.60
2013,09,30,03,22,10.60
2013,09,30,03,23,5.60
2013,09,30,03,24,2.80
2013,09,30,03,25,7.00
2013,09,30,03,26,7.40
2013,09,30,03,27,6.20
2013,09,30,03,28,4.70
2013,09,30,03,29,3.70
2013,09,30,03,30,6.70
2013,09,30,03,31,3.30
2013,09,30,03,32,5.00
2013,09,30,03,33,7.80
2013,09,30,03,34,7.20
2013,09,30,03,35,11.60
2013,09,30,03,36,4.70
2013,09,30,03,37,4.30
2013,09,30,03,38,2.40
2013,09,30,03,39,1.40
2013,09,30,03,40,7.50
2013,09,30,03,41,9.30
2013,09,30,03,42,7.80
2013,09,30,03,43,9.90
2013,09,30,03,44,3.60
2013,09,30,03,45,6.20
2013,09,30,03,46,13.00
2013,09,30,03,47,8.30
2013,09,30,03,48,4.30
2013,09,30,03,49,5.00
2013,09,30,03,50,4.30
2013,09,30,03,51,8.80
2013,09,30,03,52,6.00
2013,09,30,03,53,3.90
2013,09,30,03,54,4.70
2013,09,30,03,55,3.10
2013,09,30,03,56,7.20
2013,09,30,03,57,2.50
2013,09,30,03,58,4.20
2013,09,30,03,59,4.20
2013,09,30,04,00,7.30
2013,09,30,04,01,4.10
2013,09,30,04,02,6.40
2013,09,30,04,03,6.60
2013,09,30,04,04,5.40
2013,09,30,04,05,8.40
2013,09,30,04,06,5.60
2013,09,30,04,07,6.20
2013,09,30,04,08,6.10
2013,09,30,04,09,5.70
2013,09,30,04,10,7.50
2013,09,30,04,11,6.00
2013,09,30,04,12,6.50
2013,09,30,04,13,8.90
2013,09,30,04,14,4.90
2013,09,30,04,15,4.60
2013,09,30,04,16,3.60
2013,09,30,04,17,3.70
2013,09,30,04,18,4.20
2013,09,30,04,19,6.30
2013,09,30,04,20,7.20
2013,09,30,04,21,5.30
2013,09,30,04,22,14.80
2013,09,30,04,23,8.50
2013,09,30,04,24,4.50
2013,09,30,04,25,5.30
2013,09,30,04,26,8.30
2013,09,30,04,27,3.00
2013,09,30,04,28,7.40
2013,09,30,04,29,1.40
2013,09,30,04,30,4.50
2013,09,30,04,31,5.60
2013,09,30,04,32,4.40
2013,09,30,04,33,2.30
2013,09,30,04,34,5.70
2013,09,30,04,35,7.50
2013,09,30,04,36,5.40
2013,09,30,04,37,4.00
2013,09,30,04,38,8.40
2013,09,30,04,39,5.10
2013,09,30,04,40,6.40
2013,09,30,04,41,5.60
2013,09,30,04,42,5.10
2013,09,30,04,43,11.00
2013,09,30,04,44,5.30
2013,09,30,04,45,6.80
2013,09,30,04,46,9.60
2013,09,30,04,47,10.90
2013,09,30,04,48,7.20
2013,09,30,04,49,15.50
2013,09,30,04,50,11.00
2013,09,30,04,51,11.60
2013,09,30,04,52,9.30
2013,09,30,04,53,7.70
2013,09,30,04,54,8.20
2013,09,30,04,55,9.50
2013,09,30,04,56,4.30
2013,09,30,04,57,11.60
2013,09,30,04,58,4.60
2013,09,30,04,59,10.40
2013,09,30,05,00,8.50
2013,09,30,05,01,5.20
2013,09,30,05,02,5.60
2013,09,30,05,03,9.00
2013,09,30,05,04,9.70
2013,09,30,05,05,6.10
2013,09,30,05,06,5.50
2013,09,30,05,07,9.40
2013,09,30,05,08,8.60
2013,09,30,05,09,3.40
2013,09,30,05,10,7.90
2013,09,30,05,11,3.90
2013,09,30,05,12,5.60
2013,09,30,05,13,5.50
2013,09,30,05,14,9.70
2013,09,30,05,15,15.00
2013,09,30,05,16,11.10
2013,09,30,05,17,8.10
2013,09,30,05,18,11.20
2013,09,30,05,19,9.60
2013,09,30,05,20,5.60
2013,09,30,05,21,7.60
2013,09,30,05,22,5.30
2013,09,30,05,23,6.80
2013,09,30,05,24,8.30
2013,09,30,05,25,6.90
2013,09,30,05,26,7.40
2013,09,30,05,27,7.00
2013,09,30,05,28,9.40
2013,09,30,05,29,10.60
2013,09,30,05,30,15.10
2013,09,30,05,31,13.00
2013,09,30,05,32,18.10
2013,09,30,05,33,21.50
2013,09,30,05,34,7.00
2013,09,30,05,35,10.30
2013,09,30,05,36,6.60
2013,09,30,05,37,8.10
2013,09,30,05,38,4.70
2013,09,30,05,39,4.70
2013,09,30,05,40,11.80
2013,09,30,05,41,11.50
2013,09,30,05,42,9.30
2013,09,30,05,43,2.80
2013,09,30,05,44,6.40
2013,09,30,05,45,8.10
2013,09,30,05,46,6.10
2013,09,30,05,47,6.60
2013,09,30,05,48,4.30
2013,09,30,05,49,4.40
2013,09,30,05,50,5.30
2013,09,30,05,51,6.40
2013,09,30,05,52,7.40
2013,09,30,05,53,6.40
2013,09,30,05,54,7.90
2013,09,30,05,55,6.20
2013,09,30,05,56,6.40
2013,09,30,05,57,7.60
2013,09,30,05,58,7.20
2013,09,30,05,59,4.90
2013,09,30,06,00,2.80
2013,09,30,06,01,3.90
2013,09,30,06,02,5.30
2013,09,30,06,03,2.70
2013,09,30,06,04,2.30
2013,09,30,06,05,3.40
2013,09,30,06,06,2.50
2013,09,30,06,07,3.20
2013,09,30,06,08,1.00
2013,09,30,06,09,0.50
2013,09,30,06,10,0.70
2013,09,30,06,11,0.80
2013,09,30,06,12,0.40
2013,09,30,06,13,1.10
2013,09,30,06,14,0.90
2013,09,30,06,15,0.20
2013,09,30,06,16,0.00
2013,09,30,06,17,0.50
2013,09,30,06,18,1.80
2013,09,30,06,19,0.20
2013,09,30,06,20,0.60
2013,09,30,06,21,1.30
2013,09,30,06,22,0.40
2013,09,30,06,23,0.10
2013,09,30,06,24,0.00
2013,09,30,06,25,1.00
2013,09,30,06,26,2.10
2013,09,30,06,27,2.70
2013,09,30,06,28,2.30
2013,09,30,06,29,1.30
2013,09,30,06,30,1.10
2013,09,30,06,31,1.70
2013,09,30,06,32,0.60
2013,09,30,06,33,1.30
2013,09,30,06,34,1.10
2013,09,30,06,35,0.30
2013,09,30,06,36,0.00
2013,09,30,06,37,0.40
2013,09,30,06,38,0.20
2013,09,30,06,39,0.20
2013,09,30,06,40,0.00
2013,09,30,06,41,0.00
2013,09,30,06,42,0.00
2013,09,30,06,43,0.00
2013,09,30,06,44,0.00
2013,09,30,06,45,0.00
2013,09,30,06,46,0.00
2013,09,30,06,47,0.00
2013,09,30,06,48,0.00
2013,09,30,06,49,1.20
2013,09,30,06,50,2.50
2013,09,30,06,51,1.40
2013,09,30,06,52,0.80
2013,09,30,06,53,1.00
2013,09,30,06,54,1.60
2013,09,30,06,55,1.00
2013,09,30,06,56,0.60
2013,09,30,06,57,1.00
2013,09,30,06,58,1.00
2013,09,30,06,59,0.00
2013,09,30,07,00,0.50
2013,09,30,07,01,1.10
2013,09,30,07,02,2.30
2013,09,30,07,03,2.20
2013,09,30,07,04,2.20
2013,09,30,07,05,2.00
2013,09,30,07,06,1.90
2013,09,30,07,07,1.80
2013,09,30,07,08,1.00
2013,09,30,07,09,1.00
2013,09,30,07,10,3.90
2013,09,30,07,11,1.50
2013,09,30,07,12,3.90
2013,09,30,07,13,3.70
2013,09,30,07,14,1.90
2013,09,30,07,15,2.00
2013,09,30,07,16,2.10
2013,09,30,07,17,0.80
2013,09,30,07,18,1.60
2013,09,30,07,19,1.50
2013,09,30,07,20,1.60
2013,09,30,07,21,1.30
2013,09,30,07,22,3.10
2013,09,30,07,23,2.00
2013,09,30,07,24,2.70
2013,09,30,07,25,3.90
2013,09,30,07,26,4.90
2013,09,30,07,27,6.40
2013,09,30,07,28,4.00
2013,09,30,07,29,1.00
2013,09,30,07,30,0.30
2013,09,30,07,31,0.20
2013,09,30,07,32,0.90
2013,09,30,07,33,2.50
2013,09,30,07,34,0.60
2013,09,30,07,35,1.00
2013,09,30,07,36,4.10
2013,09,30,07,37,9.80
2013,09,30,07,38,5.80
2013,09,30,07,39,5.90
2013,09,30,07,40,6.30
2013,09,30,07,41,4.20
2013,09,30,07,42,8.90
2013,09,30,07,43,7.20
2013,09,30,07,44,6.40
2013,09,30,07,45,5.70
2013,09,30,07,46,3.50
2013,09,30,07,47,10.20
2013,09,30,07,48,6.90
2013,09,30,07,49,7.70
2013,09,30,07,50,10.00
2013,09,30,07,51,12.10
2013,09,30,07,52,7.70
2013,09,30,07,53,3.10
2013,09,30,07,54,3.70
2013,09,30,07,55,11.60
2013,09,30,07,56,6.90
2013,09,30,07,57,5.70
2013,09,30,07,58,7.60
2013,09,30,07,59,5.40
2013,09,30,08,00,6.10
2013,09,30,08,01,7.50
2013,09,30,08,02,3.50
2013,09,30,08,03,5.70
2013,09,30,08,04,5.00
2013,09,30,08,05,3.20
2013,09,30,08,06,1.50
2013,09,30,08,07,3.00
2013,09,30,08,08,3.80
2013,09,30,08,09,3.90
2013,09,30,08,10,3.10
2013,09,30,08,11,3.50
2013,09,30,08,12,3.90
2013,09,30,08,13,6.00
2013,09,30,08,14,4.20
2013,09,30,08,15,1.40
2013,09,30,08,16,4.60
2013,09,30,08,17,4.30
2013,09,30,08,18,5.00
2013,09,30,08,19,4.70
2013,09,30,08,20,4.30
2013,09,30,08,21,2.40
2013,09,30,08,22,3.10
2013,09,30,08,23,0.10
2013,09,30,08,24,1.50
2013,09,30,08,25,3.10
2013,09,30,08,26,5.10
2013,09,30,08,27,3.50
2013,09,30,08,28,3.70
2013,09,30,08,29,3.30
2013,09,30,08,30,1.40
2013,09,30,08,31,2.30
2013,09,30,08,32,1.80
2013,09,30,08,33,0.70
2013,09,30,08,34,2.70
2013,09,30,08,35,2.70
2013,09,30,08,36,1.90
2013,09,30,08,37,1.20
2013,09,30,08,38,1.80
2013,09,30,08,39,2.90
2013,09,30,08,40,1.40
2013,09,30,08,41,1.60
2013,09,30,08,42,3.00
2013,09,30,08,43,1.20
2013,09,30,08,44,0.60
2013,09,30,08,45,2.60
2013,09,30,08,46,2.80
2013,09,30,08,47,3.60
2013,09,30,08,48,1.60
2013,09,30,08,49,2.60
2013,09,30,08,50,2.40
2013,09,30,08,51,2.80
2013,09,30,08,52,3.20
2013,09,30,08,53,2.70
2013,09,30,08,54,3.70
2013,09,30,08,55,2.20
2013,09,30,08,56,2.50
2013,09,30,08,57,2.00
2013,09,30,08,58,2.40
2013,09,30,08,59,2.50
2013,09,30,09,00,4.90
2013,09,30,09,01,4.80
2013,09,30,09,02,5.60
2013,09,30,09,03,4.10
2013,09,30,09,04,4.00
2013,09,30,09,05,3.70
2013,09,30,09,06,2.80
2013,09,30,09,07,0.60
2013,09,30,09,08,1.10
2013,09,30,09,09,2.60
2013,09,30,09,10,2.50
2013,09,30,09,11,4.50
2013,09,30,09,12,1.90
2013,09,30,09,13,0.10
2013,09,30,09,14,4.10
2013,09,30,09,15,2.30
2013,09,30,09,16,0.40
2013,09,30,09,17,0.70
2013,09,30,09,18,1.20
2013,09,30,09,19,2.40
2013,09,30,09,20,2.20
2013,09,30,09,21,2.90
2013,09,30,09,22,3.00
2013,09,30,09,23,1.90
2013,09,30,09,24,0.10
2013,09,30,09,25,3.10
2013,09,30,09,26,3.90
2013,09,30,09,27,1.80
2013,09,30,09,28,3.10
2013,09,30,09,29,6.40
2013,09,30,09,30,3.00
2013,09,30,09,31,1.50
2013,09,30,09,32,3.90
2013,09,30,09,33,3.20
2013,09,30,09,34,7.30
2013,09,30,09,35,5.50
2013,09,30,09,36,2.70
2013,09,30,09,37,5.20
2013,09,30,09,38,3.00
2013,09,30,09,39,4.40
2013,09,30,09,40,6.30
2013,09,30,09,41,5.90
2013,09,30,09,42,5.60
2013,09,30,09,43,7.60
2013,09,30,09,44,3.20
2013,09,30,09,45,2.90
2013,09,30,09,46,5.00
2013,09,30,09,47,6.50
2013,09,30,09,48,7.20
2013,09,30,09,49,7.40
2013,09,30,09,50,3.50
2013,09,30,09,51,10.50
2013,09,30,09,52,5.40
2013,09,30,09,53,9.80
2013,09,30,09,54,10.50
2013,09,30,09,55,3.20
2013,09,30,09,56,3.40
2013,09,30,09,57,5.90
2013,09,30,09,58,7.20
2013,09,30,09,59,5.10
2013,09,30,10,00,5.90
2013,09,30,10,01,7.50
2013,09,30,10,02,7.40
2013,09,30,10,03,4.10
2013,09,30,10,04,8.00
2013,09,30,10,05,4.00
2013,09,30,10,06,3.10
2013,09,30,10,07,4.10
2013,09,30,10,08,2.20
2013,09,30,10,09,2.20
2013,09,30,10,10,4.40
2013,09,30,10,11,6.60
2013,09,30,10,12,6.10
2013,09,30,10,13,7.40
2013,09,30,10,14,3.70
2013,09,30,10,15,3.80
2013,09,30,10,16,2.20
2013,09,30,10,17,2.50
2013,09,30,10,18,5.50
2013,09,30,10,19,4.30
2013,09,30,10,20,0.60
2013,09,30,10,21,1.10
2013,09,30,10,22,1.40
2013,09,30,10,23,4.00
2013,09,30,10,24,3.10
2013,09,30,10,25,2.80
2013,09,30,10,26,1.80
2013,09,30,10,27,3.70
2013,09,30,10,28,1.90
2013,09,30,10,29,4.50
2013,09,30,10,30,5.40
2013,09,30,10,31,8.90
2013,09,30,10,32,10.10
2013,09,30,10,33,7.50
2013,09,30,10,34,7.90
2013,09,30,10,35,4.00
2013,09,30,10,36,1.30
2013,09,30,10,37,5.20
2013,09,30,10,38,0.60
2013,09,30,10,39,2.90
2013,09,30,10,40,0.90
2013,09,30,10,41,2.00
2013,09,30,10,42,3.60
2013,09,30,10,43,2.00
2013,09,30,10,44,3.10
2013,09,30,10,45,5.10
2013,09,30,10,46,4.80
2013,09,30,10,47,6.10
2013,09,30,10,48,7.10
2013,09,30,10,49,8.30
2013,09,30,10,50,4.80
2013,09,30,10,51,3.80
2013,09,30,10,52,1.90
2013,09,30,10,53,2.70
2013,09,30,10,54,2.50
2013,09,30,10,55,3.20
2013,09,30,10,56,1.70
2013,09,30,10,57,3.60
2013,09,30,10,58,1.30
2013,09,30,10,59,1.90
2013,09,30,11,00,1.40
2013,09,30,11,01,2.80
2013,09,30,11,02,1.40
2013,09,30,11,03,3.50
2013,09,30,11,04,5.50
2013,09,30,11,05,5.30
2013,09,30,11,06,1.10
2013,09,30,11,07,2.90
2013,09,30,11,08,3.00
2013,09,30,11,09,3.50
2013,09,30,11,10,6.60
2013,09,30,11,11,2.70
2013,09,30,11,12,6.40
2013,09,30,11,13,3.90
2013,09,30,11,14,3.20
2013,09,30,11,15,1.50
2013,09,30,11,16,3.70
2013,09,30,11,17,0.90
2013,09,30,11,18,2.50
2013,09,30,11,19,0.00
2013,09,30,11,20,1.30
2013,09,30,11,21,4.60
2013,09,30,11,22,2.50
2013,09,30,11,23,4.40
2013,09,30,11,24,7.10
2013,09,30,11,25,7.00
2013,09,30,11,26,5.10
2013,09,30,11,27,1.60
2013,09,30,11,28,6.10
2013,09,30,11,29,5.60
2013,09,30,11,30,6.50
2013,09,30,11,31,5.40
2013,09,30,11,32,5.40
2013,09,30,11,33,8.40
2013,09,30,11,34,9.10
2013,09,30,11,35,8.20
2013,09,30,11,36,5.40
2013,09,30,11,37,4.90
2013,09,30,11,38,1.90
2013,09,30,11,39,0.90
2013,09,30,11,40,3.00
2013,09,30,11,41,0.50
2013,09,30,11,42,0.40
2013,09,30,11,43,5.00
2013,09,30,11,44,4.10
2013,09,30,11,45,3.20
2013,09,30,11,46,4.20
2013,09,30,11,47,6.40
2013,09,30,11,48,7.30
2013,09,30,11,49,3.80
2013,09,30,11,50,1.80
2013,09,30,11,51,3.40
2013,09,30,11,52,2.70
2013,09,30,11,53,2.60
2013,09,30,11,54,1.70
2013,09,30,11,55,1.10
2013,09,30,11,56,1.80
2013,09,30,11,57,3.60
2013,09,30,11,58,1.20
2013,09,30,11,59,1.10
2013,09,30,12,00,4.90
2013,09,30,12,01,4.00
2013,09,30,12,02,7.20
2013,09,30,12,03,6.90
2013,09,30,12,04,5.00
2013,09,30,12,05,5.60
2013,09,30,12,06,5.10
2013,09,30,12,07,6.80
2013,09,30,12,08,13.40
2013,09,30,12,09,17.60
2013,09,30,12,10,17.60
2013,09,30,12,11,15.50
2013,09,30,12,12,17.80
2013,09,30,12,13,13.90
2013,09,30,12,14,14.50
2013,09,30,12,15,16.30
2013,09,30,12,16,15.30
2013,09,30,12,17,10.30
2013,09,30,12,18,7.60
2013,09,30,12,19,8.30
2013,09,30,12,20,5.90
2013,09,30,12,21,2.50
2013,09,30,12,22,3.80
2013,09,30,12,23,3.90
2013,09,30,12,24,3.40
2013,09,30,12,25,6.30
2013,09,30,12,26,4.90
2013,09,30,12,27,4.80
2013,09,30,12,28,10.10
2013,09,30,12,29,5.80
2013,09,30,12,30,2.50
2013,09,30,12,31,0.90
2013,09,30,12,32,7.20
2013,09,30,12,33,1.20
2013,09,30,12,34,1.60
2013,09,30,12,35,1.10
2013,09,30,12,36,8.10
2013,09,30,12,37,5.30
2013,09,30,12,38,4.70
2013,09,30,12,39,2.80
2013,09,30,12,40,0.80
2013,09,30,12,41,2.70
2013,09,30,12,42,4.80
2013,09,30,12,43,6.20
2013,09,30,12,44,4.90
2013,09,30,12,45,3.70
2013,09,30,12,46,5.10
2013,09,30,12,47,3.50
2013,09,30,12,48,1.90
2013,09,30,12,49,2.70
2013,09,30,12,50,4.30
2013,09,30,12,51,7.90
2013,09,30,12,52,5.60
2013,09,30,12,53,3.20
2013,09,30,12,54,2.70
2013,09,30,12,55,7.90
2013,09,30,12,56,5.50
2013,09,30,12,57,2.60
2013,09,30,12,58,6.00
2013,09,30,12,59,8.70
2013,09,30,13,00,4.60
2013,09,30,13,01,2.30
2013,09,30,13,02,2.90
2013,09,30,13,03,3.80
2013,09,30,13,04,4.50
2013,09,30,13,05,2.20
2013,09,30,13,06,2.30
2013,09,30,13,07,2.90
2013,09,30,13,08,3.60
2013,09,30,13,09,3.30
2013,09,30,13,10,3.80
2013,09,30,13,11,6.00
2013,09,30,13,12,7.10
2013,09,30,13,13,8.20
2013,09,30,13,14,3.40
2013,09,30,13,15,6.50
2013,09,30,13,16,5.60
2013,09,30,13,17,5.60
2013,09,30,13,18,6.80
2013,09,30,13,19,3.80
2013,09,30,13,20,3.10
2013,09,30,13,21,1.80
2013,09,30,13,22,1.60
2013,09,30,13,23,5.10
2013,09,30,13,24,7.00
2013,09,30,13,25,4.30
2013,09,30,13,26,2.60
2013,09,30,13,27,6.00
2013,09,30,13,28,3.80
2013,09,30,13,29,2.90
2013,09,30,13,30,2.80
2013,09,30,13,31,4.00
2013,09,30,13,32,7.40
2013,09,30,13,33,10.30
2013,09,30,13,34,7.00
2013,09,30,13,35,7.70
2013,09,30,13,36,6.20
2013,09,30,13,37,3.90
2013,09,30,13,38,5.60
2013,09,30,13,39,6.50
2013,09,30,13,40,4.80
2013,09,30,13,41,5.40
2013,09,30,13,42,7.40
2013,09,30,13,43,5.60
2013,09,30,13,44,4.00
2013,09,30,13,45,5.80
2013,09,30,13,46,2.90
2013,09,30,13,47,4.40
2013,09,30,13,48,7.60
2013,09,30,13,49,6.00
2013,09,30,13,50,5.10
2013,09,30,13,51,1.90
2013,09,30,13,52,6.10
2013,09,30,13,53,4.30
2013,09,30,13,54,3.50
2013,09,30,13,55,3.70
2013,09,30,13,56,3.40
2013,09,30,13,57,6.80
2013,09,30,13,58,1.90
2013,09,30,13,59,4.50
2013,09,30,14,00,3.00
2013,09,30,14,01,8.20
2013,09,30,14,02,3.50
2013,09,30,14,03,1.60
2013,09,30,14,04,1.00
2013,09,30,14,05,3.10
2013,09,30,14,06,4.30
2013,09,30,14,07,3.50
2013,09,30,14,08,0.50
2013,09,30,14,09,3.00
2013,09,30,14,10,3.10
2013,09,30,14,11,2.90
2013,09,30,14,12,1.90
2013,09,30,14,13,2.50
2013,09,30,14,14,3.60
2013,09,30,14,15,3.50
2013,09,30,14,16,4.40
2013,09,30,14,17,5.60
2013,09,30,14,18,3.50
2013,09,30,14,19,1.80
2013,09,30,14,20,3.40
2013,09,30,14,21,6.50
2013,09,30,14,22,6.90
2013,09,30,14,23,3.60
2013,09,30,14,24,4.60
2013,09,30,14,25,10.50
2013,09,30,14,26,3.50
2013,09,30,14,27,5.10
2013,09,30,14,28,3.50
2013,09,30,14,29,3.10
2013,09,30,14,30,3.00
2013,09,30,14,31,3.10
2013,09,30,14,32,2.80
2013,09,30,14,33,1.90
2013,09,30,14,34,0.60
2013,09,30,14,35,2.70
2013,09,30,14,36,6.60
2013,09,30,14,37,6.90
2013,09,30,14,38,6.10
2013,09,30,14,39,5.40
2013,09,30,14,40,2.80
2013,09,30,14,41,5.40
2013,09,30,14,42,6.40
2013,09,30,14,43,3.90
2013,09,30,14,44,4.70
2013,09,30,14,45,5.80
2013,09,30,14,46,6.30
2013,09,30,14,47,5.10
2013,09,30,14,48,1.40
2013,09,30,14,49,2.40
2013,09,30,14,50,3.40
2013,09,30,14,51,5.90
2013,09,30,14,52,4.80
2013,09,30,14,53,6.60
2013,09,30,14,54,9.80
2013,09,30,14,55,5.10
2013,09,30,14,56,7.30
2013,09,30,14,57,3.70
2013,09,30,14,58,6.80
2013,09,30,14,59,7.80
2013,09,30,15,00,7.50
2013,09,30,15,01,5.30
2013,09,30,15,02,3.40
2013,09,30,15,03,7.40
2013,09,30,15,04,3.50
2013,09,30,15,05,0.30
2013,09,30,15,06,3.80
2013,09,30,15,07,2.30
2013,09,30,15,08,2.90
2013,09,30,15,09,3.50
2013,09,30,15,10,2.30
2013,09,30,15,11,2.30
2013,09,30,15,12,1.10
2013,09,30,15,13,3.90
2013,09,30,15,14,4.70
2013,09,30,15,15,3.80
2013,09,30,15,16,2.80
2013,09,30,15,17,2.60
2013,09,30,15,18,5.00
2013,09,30,15,19,4.70
2013,09,30,15,20,2.00
2013,09,30,15,21,4.80
2013,09,30,15,22,4.00
2013,09,30,15,23,5.60
2013,09,30,15,24,6.20
2013,09,30,15,25,8.80
2013,09,30,15,26,6.90
2013,09,30,15,27,7.70
2013,09,30,15,28,3.30
2013,09,30,15,29,4.00
2013,09,30,15,30,3.70
2013,09,30,15,31,1.50
2013,09,30,15,32,4.30
2013,09,30,15,33,3.40
2013,09,30,15,34,5.20
2013,09,30,15,35,5.20
2013,09,30,15,36,4.10
2013,09,30,15,37,2.90
2013,09,30,15,38,4.30
2013,09,30,15,39,5.90
2013,09,30,15,40,4.30
2013,09,30,15,41,3.90
2013,09,30,15,42,10.40
2013,09,30,15,43,6.30
2013,09,30,15,44,3.30
2013,09,30,15,45,4.50
2013,09,30,15,46,6.70
2013,09,30,15,47,8.10
2013,09,30,15,48,4.70
2013,09,30,15,49,3.60
2013,09,30,15,50,4.40
2013,09,30,15,51,3.00
2013,09,30,15,52,5.30
2013,09,30,15,53,3.40
2013,09,30,15,54,2.70
2013,09,30,15,55,4.00
2013,09,30,15,56,2.20
2013,09,30,15,57,4.90
2013,09,30,15,58,3.50
2013,09,30,15,59,3.50
2013,09,30,16,00,5.90
2013,09,30,16,01,8.10
2013,09,30,16,02,6.90
2013,09,30,16,03,3.70
2013,09,30,16,04,4.60
2013,09,30,16,05,1.60
2013,09,30,16,06,4.40
2013,09,30,16,07,2.10
2013,09,30,16,08,5.30
2013,09,30,16,09,4.70
2013,09,30,16,10,4.10
2013,09,30,16,11,3.20
2013,09,30,16,12,5.20
2013,09,30,16,13,2.10
2013,09,30,16,14,6.40
2013,09,30,16,15,6.80
2013,09,30,16,16,3.70
2013,09,30,16,17,2.40
2013,09,30,16,18,1.90
2013,09,30,16,19,3.10
2013,09,30,16,20,5.00
2013,09,30,16,21,3.90
2013,09,30,16,22,4.10
2013,09,30,16,23,2.60
2013,09,30,16,24,3.00
2013,09,30,16,25,0.60
2013,09,30,16,26,2.80
2013,09,30,16,27,2.60
2013,09,30,16,28,2.70
2013,09,30,16,29,0.80
2013,09,30,16,30,0.70
2013,09,30,16,31,1.50
2013,09,30,16,32,1.30
2013,09,30,16,33,4.90
2013,09,30,16,34,0.90
2013,09,30,16,35,0.60
2013,09,30,16,36,3.90
2013,09,30,16,37,2.80
2013,09,30,16,38,2.50
2013,09,30,16,39,0.60
2013,09,30,16,40,2.10
2013,09,30,16,41,2.40
2013,09,30,16,42,2.90
2013,09,30,16,43,1.90
2013,09,30,16,44,1.60
2013,09,30,16,45,2.70
2013,09,30,16,46,3.60
2013,09,30,16,47,6.90
2013,09,30,16,48,4.70
2013,09,30,16,49,4.30
2013,09,30,16,50,4.20
2013,09,30,16,51,4.30
2013,09,30,16,52,4.70
2013,09,30,16,53,7.10
2013,09,30,16,54,4.20
2013,09,30,16,55,4.30
2013,09,30,16,56,10.60
2013,09,30,16,57,12.10
2013,09,30,16,58,7.30
2013,09,30,16,59,2.90
2013,09,30,17,00,5.10
2013,09,30,17,01,3.50
2013,09,30,17,02,12.80
2013,09,30,17,03,12.40
2013,09,30,17,04,9.10
2013,09,30,17,05,12.10
2013,09,30,17,06,9.60
2013,09,30,17,07,2.50
2013,09,30,17,08,6.80
2013,09,30,17,09,8.40
2013,09,30,17,10,11.90
2013,09,30,17,11,13.60
2013,09,30,17,12,4.70
2013,09,30,17,13,10.20
2013,09,30,17,14,12.00
2013,09,30,17,15,6.40
2013,09,30,17,16,8.50
2013,09,30,17,17,8.10
2013,09,30,17,18,7.30
2013,09,30,17,19,10.90
2013,09,30,17,20,16.60
2013,09,30,17,21,10.70
2013,09,30,17,22,7.50
2013,09,30,17,23,9.90
2013,09,30,17,24,7.40
2013,09,30,17,25,7.40
2013,09,30,17,26,7.30
2013,09,30,17,27,6.70
2013,09,30,17,28,5.70
2013,09,30,17,29,9.80
2013,09,30,17,30,5.90
2013,09,30,17,31,9.30
2013,09,30,17,32,7.60
2013,09,30,17,33,6.20
2013,09,30,17,34,4.30
2013,09,30,17,35,3.80
2013,09,30,17,36,10.20
2013,09,30,17,37,4.30
2013,09,30,17,38,7.40
2013,09,30,17,39,8.50
2013,09,30,17,40,5.10
2013,09,30,17,41,3.20
2013,09,30,17,42,4.30
2013,09,30,17,43,4.80
2013,09,30,17,44,4.40
2013,09,30,17,45,6.80
2013,09,30,17,46,6.60
2013,09,30,17,47,5.10
2013,09,30,17,48,6.40
2013,09,30,17,49,11.60
2013,09,30,17,50,6.70
2013,09,30,17,51,6.10
2013,09,30,17,52,3.40
2013,09,30,17,53,6.10
2013,09,30,17,54,3.90
2013,09,30,17,55,5.40
2013,09,30,17,56,3.70
2013,09,30,17,57,1.60
2013,09,30,17,58,1.40
2013,09,30,17,59,5.90
2013,09,30,18,00,1.90
2013,09,30,18,01,3.80